QPF
0.03 0.04 0.01 0.00 0.00 0.00 0.00 0.01 0.04 0.07 0.09 0.10 0.09 0.05 0.04 0.03 0.03 0.03 0.02 0.02 0.03 0.03 0.03 0.02 0.02 0.02 0.02 0.02 0.02 0.04 0.06 0.06 0.04 0.02 0.02 0.01 0.01 0.01 0.01 0.01 0.01 0.02 0.02 0.01
0.02 0.02 0.02 0.01 0.00 0.00 0.00 0.01 0.03 0.05 0.07 0.07 0.08 0.08 0.05 0.03 0.03 0.03 0.02 0.02 0.02 0.03 0.03 0.03 0.02 0.02 0.03 0.03 0.02 0.03 0.03 0.03 0.02 0.02 0.02 0.01 0.01 0.01 0.01 0.01 0.01 0.01 0.01 0.01
0.03 0.01 0.02 0.05 0.02 0.01 0.02 0.01 0.03 0.07 0.07 0.05 0.05 0.06 0.06 0.05 0.04 0.06 0.04 0.02 0.02 0.03 0.03 0.02 0.03 0.03 0.04 0.03 0.02 0.02 0.03 0.02 0.02 0.02 0.02 0.01 0.01 0.01 0.01 0.01 0.01 0.01 0.02 0.02
0.04 0.04 0.08 0.08 0.02 0.01 0.03 0.03 0.03 0.05 0.04 0.04 0.04 0.05 0.06 0.07 0.07 0.07 0.06 0.03 0.02 0.01 0.02 0.02 0.03 0.02 0.02 0.01 0.01 0.02 0.02 0.01 0.01 0.02 0.02 0.02 0.02 0.02 0.03 0.02 0.01 0.02 0.02 0.02
0.05 0.09 0.10 0.06 0.03 0.03 0.06 0.08 0.03 0.04 0.06 0.04 0.03 0.03 0.06 0.09 0.08 0.06 0.05 0.03 0.02 0.01 0.01 0.03 0.02 0.02 0.01 0.02 0.02 0.02 0.02 0.01 0.01 0.01 0.02 0.03 0.02 0.02 0.03 0.03 0.02 0.02 0.02 0.02
0.06 0.09 0.12 0.10 0.03 0.02 0.06 0.09 0.04 0.03 0.05 0.04 0.04 0.05 0.05 0.04 0.04 0.04 0.05 0.04 0.03 0.03 0.03 0.03 0.03 0.02 0.03 0.03 0.03 0.03 0.02 0.01 0.01 0.02 0.03 0.02 0.02 0.03 0.03 0.03 0.03 0.03 0.02 0.02
0.08 0.10 0.10 0.04 0.01 0.02 0.08 0.09 0.05 0.03 0.02 0.02 0.03 0.04 0.03 0.02 0.02 0.04 0.07 0.06 0.06 0.06 0.07 0.05 0.04 0.03 0.04 0.04 0.03 0.02 0.01 0.01 0.01 0.03 0.03 0.03 0.03 0.03 0.03 0.03 0.04 0.03 0.03 0.02
0.08 0.10 0.09 0.02 0.02 0.04 0.06 0.04 0.03 0.02 0.01 0.01 0.01 0.01 0.01 0.01 0.02 0.04 0.06 0.06 0.05 0.06 0.07 0.06 0.05 0.05 0.06 0.05 0.04 0.02 0.02 0.02 0.03 0.03 0.02 0.02 0.03 0.03 0.02 0.03 0.04 0.02 0.03 0.02
0.07 0.07 0.05 0.01 0.01 0.01 0.01 0.01 0.02 0.02 0.01 0.01 0.01 0.00 0.01 0.01 0.02 0.03 0.03 0.04 0.04 0.04 0.05 0.06 0.05 0.06 0.07 0.05 0.03 0.03 0.03 0.03 0.03 0.02 0.02 0.02 0.02 0.03 0.02 0.02 0.02 0.01 0.01 0.01
0.03 0.02 0.01 0.01 0.00 0.00 0.00 0.01 0.02 0.01 0.01 0.01 0.01 0.01 0.01 0.02 0.01 0.02 0.03 0.04 0.04 0.04 0.05 0.06 0.06 0.05 0.05 0.03 0.02 0.02 0.03 0.03 0.02 0.02 0.03 0.02 0.01 0.01 0.01 0.01 0.01 0.01 0.01 0.00
0.05 0.03 0.02 0.01 0.00 0.00 0.00 0.01 0.01 0.01 0.01 0.01 0.01 0.01 0.02 0.02 0.01 0.02 0.02 0.03 0.04 0.04 0.04 0.03 0.04 0.04 0.03 0.02 0.02 0.02 0.03 0.02 0.02 0.02 0.02 0.02 0.01 0.00 0.00 0.00 0.00 0.00 0.00 0.00
0.05 0.03 0.02 0.01 0.00 0.00 0.01 0.01 0.01 0.01 0.01 0.01 0.01 0.01 0.02 0.02 0.02 0.02 0.02 0.02 0.03 0.03 0.02 0.02 0.02 0.02 0.02 0.01 0.02 0.02 0.03 0.02 0.01 0.01 0.01 0.01 0.00 0.00 0.00 0.00 0.00 0.00 0.00 0.00
0.01 0.01 0.01 0.01 0.00 0.00 0.01 0.01 0.00 0.01 0.01 0.01 0.02 0.02 0.02 0.02 0.02 0.01 0.01 0.02 0.03 0.03 0.02 0.01 0.01 0.01 0.02 0.02 0.02 0.02 0.02 0.02 0.01 0.01 0.01 0.01 0.00 0.00 0.00 0.00 0.00 0.00 0.00 0.00
0.00 0.00 0.00 0.01 0.01 0.01 0.00 0.00 0.01 0.01 0.01 0.02 0.02 0.02 0.02 0.02 0.01 0.01 0.02 0.02 0.01 0.01 0.01 0.01 0.01 0.01 0.01 0.01 0.02 0.02 0.01 0.00 0.00 0.00 0.01 0.01 0.00 0.00 0.00 0.00 0.00 0.00 0.00 0.00
0.00 0.00 0.00 0.01 0.01 0.00 0.00 0.01 0.01 0.01 0.01 0.01 0.01 0.01 0.01 0.01 0.01 0.01 0.01 0.01 0.01 0.01 0.01 0.01 0.01 0.01 0.01 0.01 0.02 0.02 0.01 0.00 0.00 0.00 0.00 0.00 0.00 0.00 0.00 0.00 0.00 0.00 0.00 0.00
0.00 0.00 0.00 0.01 0.01 0.01 0.00 0.00 0.01 0.01 0.01 0.01 0.01 0.01 0.01 0.01 0.01 0.01 0.01 0.01 0.01 0.01 0.01 0.01 0.01 0.01 0.01 0.01 0.01 0.01 0.01 0.00 0.00 0.00 0.00 0.00 0.00 0.00 0.00 0.00 0.00 0.00 0.00 0.00
0.00 0.00 0.00 0.01 0.02 0.01 0.00 0.00 0.00 0.00 0.00 0.01 0.01 0.01 0.01 0.01 0.01 0.01 0.00 0.00 0.01 0.01 0.01 0.01 0.01 0.01 0.00 0.00 0.01 0.01 0.00 0.00 0.00 0.00 0.00 0.00 0.00 0.00 0.00 0.00 0.00 0.00 0.00 0.00
0.00 0.00 0.00 0.00 0.00 0.00 0.00 0.00 0.00 0.00 0.00 0.00 0.00 0.00 0.01 0.01 0.01 0.01 0.01 0.00 0.00 0.01 0.01 0.01 0.01 0.00 0.00 0.00 0.00 0.00 0.00 0.00 0.00 0.00 0.00 0.00 0.00 0.00 0.00 0.00 0.00 0.00 0.00 0.00
0.00 0.00 0.00 0.00 0.00 0.00 0.00 0.00 0.00 0.00 0.00 0.00 0.00 0.00 0.01 0.01 0.01 0.01 0.01 0.00 0.00 0.01 0.00 0.00 0.00 0.00 0.00 0.00 0.00 0.00 0.00 0.00 0.00 0.00 0.00 0.00 0.00 0.00 0.00 0.00 0.00 0.00 0.00 0.00
0.00 0.00 0.00 0.00 0.00 0.00 0.00 0.00 0.00 0.00 0.00 0.00 0.00 0.00 0.00 0.00 0.00 0.01 0.01 0.00 0.00 0.00 0.00 0.00 0.00 0.00 0.00 0.00 0.00 0.00 0.00 0.00 0.00 0.00 0.00 0.00 0.00 0.00 0.00 0.00 0.00 0.00 0.00 0.00
0.00 0.00 0.00 0.00 0.00 0.00 0.00 0.00 0.00 0.00 0.00 0.00 0.00 0.00 0.00 0.00 0.00 0.01 0.01 0.01 0.00 0.00 0.00 0.00 0.00 0.00 0.00 0.00 0.00 0.00 0.00 0.00 0.00 0.00 0.00 0.00 0.00 0.00 0.00 0.00 0.00 0.00 0.00 0.00
0.00 0.00 0.00 0.00 0.00 0.00 0.00 0.01 0.00 0.00 0.00 0.00 0.00 0.00 0.00 0.00 0.00 0.01 0.01 0.01 0.01 0.01 0.00 0.00 0.00 0.00 0.00 0.00 0.00 0.00 0.00 0.00 0.00 0.00 0.00 0.00 0.00 0.00 0.00 0.00 0.00 0.00 0.00 0.00
0.00 0.00 0.00 0.00 0.00 0.00 0.00 0.01 0.00 0.00 0.00 0.00 0.00 0.00 0.00 0.00 0.00 0.01 0.01 0.01 0.00 0.01 0.00 0.00 0.00 0.00 0.00 0.00 0.00 0.00 0.00 0.00 0.00 0.00 0.00 0.00 0.00 0.00 0.00 0.00 0.00 0.00 0.00 0.00
0.00 0.00 0.00 0.00 0.00 0.00 0.01 0.01 0.00 0.00 0.00 0.00 0.00 0.00 0.00 0.00 0.00 0.00 0.00 0.00 0.01 0.01 0.00 0.00 0.01 0.00 0.00 0.00 0.00 0.00 0.00 0.00 0.00 0.00 0.00 0.00 0.00 0.00 0.00 0.00 0.00 0.00 0.00 0.00
0.00 0.00 0.00 0.00 0.00 0.00 0.01 0.01 0.01 0.01 0.01 0.00 0.00 0.00 0.00 0.00 0.00 0.00 0.00 0.00 0.00 0.00 0.00 0.00 0.00 0.00 0.00 0.00 0.00 0.00 0.00 0.00 0.00 0.00 0.00 0.00 0.00 0.00 0.00 0.00 0.00 0.00 0.00 0.00
0.00 0.00 0.00 0.00 0.00 0.00 0.00 0.01 0.01 0.02 0.01 0.01 0.00 0.00 0.00 0.00 0.00 0.00 0.00 0.00 0.00 0.00 0.00 0.00 0.00 0.00 0.00 0.00 0.00 0.00 0.00 0.00 0.00 0.00 0.00 0.00 0.00 0.00 0.00 0.00 0.00 0.00 0.00 0.00
0.00 0.00 0.00 0.00 0.00 0.00 0.00 0.00 0.00 0.00 0.00 0.00 0.00 0.00 0.00 0.00 0.00 0.00 0.00 0.00 0.00 0.00 0.00 0.00 0.00 0.00 0.00 0.00 0.00 0.00 0.00 0.00 0.00 0.00 0.00 0.00 0.00 0.00 0.00 0.00 0.00 0.01 0.00 0.00
MSLP
1010.88 1010.78 1010.70 1010.70 1010.84 1011.17 1011.70 1012.40 1013.26 1014.20 1015.19 1016.15 1017.04 1017.82 1018.47 1018.99 1019.39 1019.69 1019.91 1020.08 1020.22 1020.34 1020.45 1020.58 1020.70 1020.84 1020.97 1021.10 1021.21 1021.31 1021.39 1021.45 1021.49 1021.52 1021.55 1021.56 1021.57 1021.58 1021.56 1021.52 1021.45 1021.34 1021.18 1020.97
1011.01 1010.93 1010.83 1010.80 1010.89 1011.15 1011.59 1012.23 1013.02 1013.93 1014.89 1015.85 1016.74 1017.53 1018.19 1018.71 1019.10 1019.38 1019.58 1019.71 1019.83 1019.94 1020.06 1020.20 1020.36 1020.55 1020.74 1020.93 1021.11 1021.26 1021.40 1021.51 1021.59 1021.66 1021.71 1021.75 1021.77 1021.78 1021.77 1021.74 1021.67 1021.56 1021.40 1021.20
1011.51 1011.46 1011.39 1011.34 1011.38 1011.57 1011.92 1012.46 1013.15 1013.96 1014.84 1015.73 1016.57 1017.32 1017.95 1018.44 1018.81 1019.07 1019.24 1019.37 1019.47 1019.59 1019.72 1019.89 1020.09 1020.32 1020.56 1020.80 1021.03 1021.23 1021.40 1021.54 1021.65 1021.73 1021.79 1021.83 1021.85 1021.85 1021.84 1021.80 1021.73 1021.62 1021.48 1021.30
1012.25 1012.26 1012.22 1012.18 1012.18 1012.30 1012.56 1012.98 1013.54 1014.23 1014.99 1015.77 1016.52 1017.20 1017.77 1018.23 1018.58 1018.82 1018.99 1019.12 1019.24 1019.36 1019.52 1019.71 1019.94 1020.19 1020.46 1020.72 1020.97 1021.19 1021.38 1021.53 1021.64 1021.71 1021.76 1021.78 1021.78 1021.77 1021.74 1021.69 1021.62 1021.53 1021.41 1021.26
1013.04 1013.12 1013.12 1013.08 1013.07 1013.12 1013.30 1013.60 1014.03 1014.59 1015.22 1015.88 1016.54 1017.15 1017.67 1018.10 1018.44 1018.69 1018.88 1019.03 1019.17 1019.32 1019.50 1019.70 1019.93 1020.19 1020.45 1020.71 1020.95 1021.16 1021.32 1021.45 1021.54 1021.60 1021.62 1021.62 1021.60 1021.56 1021.51 1021.46 1021.39 1021.32 1021.23 1021.14
1013.71 1013.84 1013.87 1013.84 1013.81 1013.82 1013.92 1014.13 1014.46 1014.90 1015.42 1015.99 1016.58 1017.14 1017.64 1018.07 1018.42 1018.71 1018.94 1019.13 1019.30 1019.47 1019.66 1019.86 1020.08 1020.31 1020.53 1020.75 1020.94 1021.11 1021.24 1021.33 1021.39 1021.41 1021.41 1021.39 1021.35 1021.30 1021.24 1021.19 1021.13 1021.08 1021.04 1021.00
1014.12 1014.28 1014.34 1014.31 1014.27 1014.25 1014.30 1014.45 1014.71 1015.07 1015.53 1016.05 1016.60 1017.15 1017.66 1018.13 1018.53 1018.87 1019.15 1019.39 1019.60 1019.80 1019.98 1020.16 1020.34 1020.52 1020.68 1020.82 1020.95 1021.05 1021.12 1021.17 1021.19 1021.19 1021.18 1021.15 1021.10 1021.05 1021.00 1020.96 1020.92 1020.90 1020.90 1020.91
1014.26 1014.43 1014.49 1014.47 1014.42 1014.39 1014.42 1014.54 1014.77 1015.11 1015.54 1016.05 1016.61 1017.19 1017.74 1018.26 1018.73 1019.14 1019.49 1019.78 1020.03 1020.23 1020.41 1020.55 1020.67 1020.77 1020.85 1020.91 1020.96 1020.99 1021.00 1021.01 1021.01 1021.00 1020.98 1020.96 1020.93 1020.90 1020.87 1020.85 1020.84 1020.85 1020.88 1020.93
1014.20 1014.36 1014.40 1014.38 1014.33 1014.30 1014.33 1014.46 1014.70 1015.05 1015.50 1016.04 1016.63 1017.26 1017.87 1018.46 1018.99 1019.47 1019.88 1020.22 1020.50 1020.71 1020.86 1020.95 1021.01 1021.03 1021.02 1021.00 1020.96 1020.93 1020.89 1020.87 1020.86 1020.86 1020.86 1020.87 1020.88 1020.88 1020.89 1020.89 1020.91 1020.94 1020.99 1021.07
1014.08 1014.19 1014.22 1014.19 1014.15 1014.14 1014.19 1014.34 1014.61 1014.99 1015.49 1016.07 1016.71 1017.38 1018.05 1018.70 1019.29 1019.82 1020.28 1020.65 1020.93 1021.13 1021.25 1021.31 1021.30 1021.25 1021.16 1021.06 1020.96 1020.87 1020.81 1020.78 1020.77 1020.79 1020.83 1020.88 1020.93 1020.98 1021.02 1021.06 1021.09 1021.14 1021.20 1021.28
1014.00 1014.08 1014.09 1014.05 1014.02 1014.03 1014.12 1014.31 1014.62 1015.05 1015.58 1016.20 1016.87 1017.58 1018.28 1018.95 1019.57 1020.13 1020.60 1020.98 1021.26 1021.45 1021.54 1021.56 1021.50 1021.39 1021.25 1021.10 1020.96 1020.84 1020.76 1020.73 1020.74 1020.78 1020.86 1020.95 1021.05 1021.13 1021.21 1021.27 1021.31 1021.36 1021.41 1021.47
1014.06 1014.11 1014.10 1014.06 1014.05 1014.09 1014.22 1014.46 1014.81 1015.27 1015.82 1016.45 1017.13 1017.83 1018.53 1019.19 1019.81 1020.35 1020.81 1021.18 1021.44 1021.62 1021.69 1021.68 1021.60 1021.47 1021.30 1021.12 1020.96 1020.83 1020.74 1020.71 1020.73 1020.80 1020.91 1021.03 1021.15 1021.26 1021.35 1021.41 1021.46 1021.49 1021.52 1021.55
1014.23 1014.26 1014.24 1014.23 1014.25 1014.33 1014.50 1014.77 1015.15 1015.63 1016.19 1016.80 1017.46 1018.12 1018.77 1019.39 1019.96 1020.46 1020.89 1021.23 1021.48 1021.64 1021.71 1021.70 1021.61 1021.48 1021.31 1021.13 1020.96 1020.83 1020.74 1020.71 1020.73 1020.80 1020.90 1021.03 1021.15 1021.26 1021.35 1021.40 1021.43 1021.43 1021.43 1021.43
1014.43 1014.46 1014.46 1014.48 1014.53 1014.66 1014.88 1015.19 1015.59 1016.07 1016.61 1017.19 1017.79 1018.39 1018.96 1019.51 1020.01 1020.45 1020.83 1021.14 1021.38 1021.53 1021.61 1021.62 1021.56 1021.45 1021.30 1021.13 1020.97 1020.83 1020.73 1020.68 1020.68 1020.72 1020.80 1020.90 1020.99 1021.08 1021.13 1021.16 1021.16 1021.14 1021.10 1021.06
1014.57 1014.61 1014.64 1014.70 1014.80 1014.99 1015.25 1015.59 1016.01 1016.48 1016.99 1017.52 1018.06 1018.57 1019.07 1019.52 1019.94 1020.32 1020.66 1020.94 1021.17 1021.34 1021.44 1021.49 1021.47 1021.39 1021.27 1021.13 1020.98 1020.83 1020.71 1020.62 1020.57 1020.56 1020.58 1020.62 1020.66 1020.69 1020.71 1020.70 1020.66 1020.61 1020.54 1020.47
1014.53 1014.59 1014.67 1014.78 1014.95 1015.18 1015.49 1015.87 1016.30 1016.76 1017.25 1017.73 1018.19 1018.63 1019.04 1019.42 1019.77 1020.10 1020.39 1020.66 1020.89 1021.08 1021.23 1021.31 1021.35 1021.32 1021.24 1021.11 1020.96 1020.80 1020.65 1020.51 1020.39 1020.30 1020.24 1020.20 1020.17 1020.14 1020.10 1020.05 1019.98 1019.90 1019.81 1019.73
1014.29 1014.39 1014.51 1014.67 1014.89 1015.19 1015.54 1015.95 1016.39 1016.86 1017.32 1017.76 1018.17 1018.55 1018.89 1019.20 1019.50 1019.78 1020.06 1020.32 1020.56 1020.79 1020.97 1021.11 1021.20 1021.22 1021.17 1021.07 1020.92 1020.74 1020.54 1020.34 1020.15 1019.98 1019.83 1019.70 1019.59 1019.49 1019.40 1019.31 1019.21 1019.11 1019.02 1018.93
1013.89 1014.02 1014.18 1014.39 1014.66 1015.00 1015.39 1015.83 1016.29 1016.75 1017.19 1017.60 1017.98 1018.31 1018.61 1018.88 1019.14 1019.40 1019.66 1019.93 1020.20 1020.46 1020.69 1020.88 1021.01 1021.07 1021.06 1020.98 1020.83 1020.63 1020.39 1020.13 1019.87 1019.62 1019.39 1019.19 1019.01 1018.85 1018.71 1018.59 1018.47 1018.36 1018.27 1018.18
1013.43 1013.58 1013.77 1014.01 1014.32 1014.69 1015.11 1015.56 1016.02 1016.48 1016.91 1017.30 1017.64 1017.95 1018.22 1018.47 1018.71 1018.96 1019.22 1019.50 1019.79 1020.08 1020.35 1020.58 1020.75 1020.85 1020.87 1020.81 1020.66 1020.45 1020.19 1019.89 1019.58 1019.27 1018.99 1018.72 1018.50 1018.30 1018.12 1017.98 1017.85 1017.74 1017.64 1017.55
1013.03 1013.19 1013.40 1013.67 1013.99 1014.37 1014.79 1015.23 1015.68 1016.12 1016.53 1016.90 1017.22 1017.50 1017.75 1017.99 1018.22 1018.47 1018.73 1019.02 1019.33 1019.63 1019.93 1020.19 1020.39 1020.53 1020.58 1020.53 1020.40 1020.19 1019.93 1019.62 1019.29 1018.95 1018.64 1018.35 1018.09 1017.87 1017.68 1017.52 1017.39 1017.27 1017.17 1017.08
1012.79 1012.97 1013.18 1013.44 1013.76 1014.12 1014.51 1014.93 1015.35 1015.75 1016.12 1016.46 1016.75 1017.01 1017.24 1017.46 1017.68 1017.92 1018.18 1018.47 1018.79 1019.10 1019.41 1019.69 1019.92 1020.08 1020.15 1020.14 1020.03 1019.85 1019.60 1019.30 1018.98 1018.65 1018.34 1018.04 1017.78 1017.55 1017.36 1017.20 1017.07 1016.95 1016.84 1016.74
1012.76 1012.94 1013.14 1013.39 1013.67 1013.99 1014.34 1014.70 1015.06 1015.41 1015.73 1016.02 1016.27 1016.49 1016.70 1016.89 1017.10 1017.32 1017.57 1017.85 1018.16 1018.47 1018.79 1019.07 1019.31 1019.49 1019.60 1019.61 1019.54 1019.40 1019.19 1018.92 1018.63 1018.33 1018.04 1017.76 1017.52 1017.30 1017.11 1016.95 1016.81 1016.69 1016.57 1016.45
1012.90 1013.07 1013.26 1013.47 1013.71 1013.97 1014.25 1014.54 1014.82 1015.10 1015.35 1015.58 1015.78 1015.96 1016.13 1016.29 1016.47 1016.67 1016.90 1017.16 1017.45 1017.75 1018.05 1018.34 1018.59 1018.78 1018.91 1018.95 1018.93 1018.83 1018.66 1018.45 1018.21 1017.95 1017.69 1017.44 1017.22 1017.02 1016.84 1016.68 1016.54 1016.40 1016.27 1016.13
1013.12 1013.29 1013.45 1013.62 1013.80 1013.99 1014.19 1014.40 1014.60 1014.80 1014.98 1015.14 1015.28 1015.41 1015.53 1015.66 1015.81 1015.98 1016.18 1016.41 1016.67 1016.95 1017.23 1017.51 1017.76 1017.96 1018.10 1018.18 1018.19 1018.13 1018.01 1017.85 1017.65 1017.44 1017.22 1017.00 1016.80 1016.62 1016.45 1016.29 1016.15 1016.00 1015.86 1015.71
1013.31 1013.47 1013.61 1013.74 1013.86 1013.98 1014.11 1014.23 1014.36 1014.47 1014.58 1014.68 1014.76 1014.84 1014.92 1015.01 1015.12 1015.26 1015.43 1015.63 1015.86 1016.11 1016.37 1016.63 1016.86 1017.06 1017.21 1017.31 1017.34 1017.31 1017.23 1017.11 1016.96 1016.78 1016.59 1016.40 1016.22 1016.05 1015.89 1015.74 1015.60 1015.45 1015.31 1015.16
1013.39 1013.53 1013.64 1013.73 1013.80 1013.87 1013.93 1013.99 1014.05 1014.10 1014.15 1014.19 1014.23 1014.26 1014.31 1014.37 1014.45 1014.55 1014.69 1014.86 1015.05 1015.27 1015.50 1015.73 1015.94 1016.13 1016.27 1016.37 1016.42 1016.41 1016.35 1016.25 1016.12 1015.97 1015.81 1015.64 1015.47 1015.31 1015.16 1015.02 1014.89 1014.75 1014.62 1014.49
1013.29 1013.41 1013.50 1013.56 1013.59 1013.62 1013.64 1013.66 1013.67 1013.68 1013.69 1013.69 1013.70 1013.71 1013.73 1013.77 1013.82 1013.90 1014.01 1014.14 1014.31 1014.49 1014.68 1014.87 1015.05 1015.21 1015.34 1015.42 1015.46 1015.45 1015.40 1015.31 1015.20 1015.06 1014.91 1014.75 1014.60 1014.45 1014.32 1014.19 1014.07 1013.96 1013.86 1013.75
Thickness
5707 5718 5722 5721 5725 5729 5722 5715 5702 5693 5685 5680 5679 5674 5667 5661 5654 5647 5639 5634 5627 5620 5615 5609 5604 5600 5596 5591 5587 5584 5580 5576 5572 5570 5568 5566 5564 5564 5563 5563 5563 5563 5563 5563
5700 5713 5717 5718 5723 5722 5718 5714 5703 5692 5678 5680 5677 5669 5661 5655 5649 5641 5633 5628 5622 5616 5609 5604 5600 5595 5590 5586 5582 5579 5575 5572 5568 5566 5563 5561 5559 5559 5557 5556 5556 5556 5556 5555
5692 5711 5710 5698 5709 5711 5707 5706 5698 5683 5675 5675 5666 5660 5655 5650 5644 5637 5629 5623 5617 5611 5605 5600 5595 5590 5586 5582 5578 5574 5571 5568 5565 5562 5560 5558 5556 5554 5552 5551 5550 5550 5550 5549
5689 5692 5675 5692 5713 5711 5700 5693 5692 5683 5677 5672 5664 5658 5653 5648 5641 5633 5626 5620 5614 5608 5601 5596 5591 5587 5583 5579 5575 5571 5568 5565 5562 5559 5556 5554 5551 5549 5547 5547 5546 5545 5545 5545
5685 5678 5677 5691 5702 5702 5690 5679 5684 5677 5671 5668 5663 5653 5644 5643 5638 5631 5623 5617 5610 5604 5598 5591 5586 5582 5579 5575 5571 5568 5565 5562 5559 5556 5553 5550 5548 5545 5544 5543 5543 5543 5542 5542
5682 5670 5664 5677 5698 5704 5691 5667 5677 5674 5667 5663 5657 5643 5635 5637 5633 5626 5619 5613 5606 5599 5592 5586 5581 5578 5574 5571 5568 5565 5563 5561 5558 5554 5551 5548 5546 5543 5542 5542 5542 5542 5541 5540
5678 5669 5667 5685 5698 5698 5669 5660 5673 5671 5665 5661 5653 5647 5639 5634 5627 5620 5614 5607 5601 5595 5588 5583 5578 5574 5570 5568 5565 5564 5562 5559 5556 5553 5550 5547 5545 5543 5541 5541 5541 5540 5540 5539
5680 5667 5660 5685 5689 5675 5667 5674 5672 5667 5662 5655 5649 5643 5635 5628 5621 5614 5608 5602 5597 5590 5584 5580 5576 5571 5567 5564 5563 5562 5559 5557 5554 5552 5550 5548 5545 5543 5542 5541 5541 5540 5540 5540
5677 5668 5675 5682 5679 5677 5677 5672 5668 5662 5657 5651 5643 5636 5630 5623 5616 5610 5604 5599 5593 5587 5581 5577 5574 5570 5566 5563 5562 5559 5557 5555 5553 5551 5550 5548 5546 5544 5544 5543 5543 5543 5543 5543
5677 5674 5677 5678 5677 5676 5674 5669 5666 5661 5654 5648 5640 5633 5625 5618 5612 5606 5601 5595 5590 5585 5580 5576 5573 5570 5566 5563 5561 5558 5555 5554 5553 5551 5550 5549 5547 5547 5547 5546 5545 5546 5546 5545
5672 5672 5674 5673 5673 5671 5670 5667 5662 5657 5652 5645 5638 5630 5623 5615 5609 5604 5598 5594 5589 5585 5580 5576 5573 5569 5567 5564 5561 5558 5556 5555 5554 5553 5552 5550 5549 5546 5546 5544 5544 5543 5544 5545
5670 5674 5672 5666 5670 5670 5665 5661 5657 5652 5646 5641 5636 5628 5621 5614 5608 5603 5598 5593 5589 5585 5582 5578 5575 5571 5568 5565 5562 5559 5557 5556 5556 5556 5555 5554 5551 5550 5547 5546 5544 5544 5544 5543
5681 5681 5675 5672 5669 5667 5662 5658 5655 5650 5644 5639 5634 5628 5621 5614 5608 5603 5599 5594 5590 5586 5583 5580 5576 5573 5570 5567 5565 5562 5560 5560 5560 5560 5559 5558 5557 5555 5552 5550 5548 5547 5547 5546
5682 5678 5670 5668 5665 5663 5661 5657 5653 5648 5643 5638 5632 5627 5620 5614 5609 5604 5600 5596 5592 5589 5586 5582 5579 5576 5574 5571 5568 5565 5564 5563 5563 5563 5563 5563 5563 5563 5561 5559 5557 5556 5554 5552
5679 5677 5671 5668 5665 5661 5658 5655 5649 5644 5640 5636 5631 5625 5620 5614 5610 5606 5602 5599 5595 5591 5588 5585 5582 5579 5577 5574 5571 5569 5568 5568 5567 5567 5568 5569 5569 5569 5570 5569 5568 5567 5565 5561
5677 5674 5671 5666 5662 5659 5656 5653 5649 5644 5640 5635 5630 5626 5622 5617 5613 5609 5605 5601 5597 5594 5592 5589 5586 5584 5581 5578 5575 5573 5572 5570 5569 5571 5572 5573 5574 5575 5575 5575 5575 5575 5574 5572
5674 5670 5667 5665 5662 5660 5657 5655 5651 5647 5642 5637 5633 5629 5624 5619 5615 5611 5608 5605 5602 5599 5596 5593 5590 5589 5586 5583 5580 5579 5579 5578 5574 5574 5576 5578 5578 5579 5580 5580 5581 5581 5582 5582
5682 5678 5674 5670 5667 5663 5660 5658 5655 5650 5646 5642 5637 5632 5627 5622 5617 5614 5612 5609 5605 5602 5599 5597 5595 5593 5591 5589 5586 5585 5585 5585 5583 5583 5583 5583 5583 5584 5585 5586 5587 5587 5587 5586
5684 5681 5677 5674 5672 5668 5665 5662 5658 5654 5650 5646 5640 5634 5630 5626 5623 5619 5616 5613 5609 5605 5604 5602 5599 5596 5595 5593 5591 5590 5589 5590 5590 5590 5589 5588 5587 5589 5590 5591 5592 5592 5593 5593
5686 5684 5681 5678 5676 5672 5668 5665 5661 5657 5653 5649 5643 5638 5633 5630 5627 5624 5620 5617 5616 5614 5612 5609 5605 5602 5600 5598 5595 5596 5596 5596 5596 5596 5595 5595 5594 5595 5596 5597 5597 5598 5598 5598
5686 5685 5682 5680 5676 5674 5671 5667 5663 5658 5655 5652 5646 5641 5638 5635 5632 5629 5624 5622 5622 5621 5617 5612 5610 5608 5606 5604 5599 5600 5601 5601 5602 5602 5601 5601 5601 5601 5602 5602 5602 5602 5602 5603
5687 5684 5682 5679 5676 5673 5671 5668 5664 5661 5657 5653 5650 5647 5643 5639 5636 5634 5631 5629 5628 5625 5622 5619 5616 5614 5612 5608 5607 5606 5606 5607 5607 5607 5607 5607 5606 5606 5606 5606 5606 5606 5606 5606
5686 5684 5681 5678 5676 5673 5671 5669 5666 5663 5659 5656 5653 5650 5647 5645 5643 5639 5636 5636 5634 5629 5626 5625 5622 5618 5614 5611 5612 5612 5611 5611 5612 5612 5612 5611 5611 5610 5610 5610 5610 5609 5609 5609
5683 5681 5679 5678 5676 5672 5669 5668 5667 5665 5663 5660 5658 5656 5652 5649 5647 5647 5645 5641 5637 5632 5630 5628 5624 5619 5615 5616 5616 5615 5615 5615 5615 5616 5616 5616 5616 5615 5614 5613 5613 5613 5612 5611
5681 5680 5678 5675 5673 5672 5670 5669 5667 5665 5664 5663 5661 5660 5658 5656 5653 5651 5649 5646 5639 5634 5634 5630 5625 5621 5619 5620 5619 5619 5620 5620 5620 5620 5620 5619 5618 5617 5616 5615 5614 5614 5613 5612
5679 5678 5677 5675 5675 5674 5674 5672 5670 5668 5666 5664 5664 5663 5661 5660 5657 5655 5651 5649 5645 5638 5637 5636 5631 5625 5625 5624 5624 5624 5623 5623 5622 5621 5620 5619 5618 5617 5615 5614 5614 5613 5612 5611
5679 5677 5675 5675 5676 5677 5676 5674 5672 5670 5669 5667 5665 5664 5663 5661 5658 5655 5653 5650 5648 5643 5641 5639 5637 5634 5631 5629 5628 5627 5625 5624 5623 5622 5621 5620 5618 5617 5616 5614 5613 5612 5610 5609